DW5979 Weather Reports


time (UTC)temp
F
wind
direction
speed
knots
gust
knots
rain 1hr
in
rain 24hr
in
rain mn
in
humidity
%
barometer
mb
20260504212328 61 244 7.8 13.0 0.00 0.03 0.03 48 1005.5
20260504211827 62 251 6.1 10.4 0.00 0.03 0.03 47 1005.6
20260504211328 61 288 7.0 9.6 0.00 0.03 0.03 48 1005.4
20260504210825 61 266 5.2 13.9 0.00 0.03 0.03 49 1005.5
20260504210322 61 251 4.3 11.3 0.00 0.03 0.03 49 1005.5
20260504205820 61 240 4.3 9.6 0.00 0.03 0.03 48 1005.4
20260504205317 60 226 2.6 14.8 0.00 0.03 0.03 48 1005.6
20260504204815 60 306 8.7 13.9 0.00 0.03 0.03 50 1005.6
20260504204313 60 315 5.2 13.0 0.00 0.03 0.03 52 1005.5
20260504203813 60 308 13.9 16.5 0.00 0.03 0.03 51 1005.9
20260504203309 60 238 6.1 11.3 0.00 0.03 0.03 51 1005.5
20260504202804 60 265 7.8 11.3 0.00 0.03 0.03 51 1005.5
20260504202304 60 282 11.3 13.9 0.00 0.03 0.03 52 1005.5
20260504201758 60 306 10.4 13.9 0.00 0.03 0.03 53 1005.4
20260504201256 59 286 7.8 12.2 0.00 0.03 0.03 53 1005.5
20260504200754 59 285 7.0 12.2 0.00 0.03 0.03 54 1005.4
20260504200249 60 316 6.1 13.0 0.00 0.03 0.03 53 1005.3
20260504195746 59 245 5.2 16.5 0.00 0.03 0.03 54 1005.5
20260504195241 59 254 8.7 16.5 0.00 0.03 0.03 52 1005.6
20260504194739 59 251 6.1 10.4 0.00 0.03 0.03 53 1005.7
20260504194235 59 231 6.1 10.4 0.00 0.03 0.03 54 1005.6
20260504193731 59 254 8.7 15.6 0.00 0.03 0.03 53 1005.7
20260504193229 59 284 9.6 10.4 0.00 0.03 0.03 54 1005.5
20260504192727 58 246 11.3 13.9 0.00 0.03 0.03 55 1005.7
20260504192225 58 280 7.8 19.1 0.00 0.03 0.03 56 1005.6
20260504191723 57 254 6.1 13.0 0.00 0.03 0.03 55 1005.5
20260504191220 58 316 12.2 17.4 0.00 0.03 0.03 55 1005.7
20260504190715 57 240 12.2 17.4 0.00 0.03 0.03 56 1005.5
20260504190212 57 280 9.6 15.6 0.00 0.03 0.03 56 1005.4
20260504185708 57 264 5.2 13.0 0.00 0.03 0.03 57 1005.7
20260504185205 57 249 3.5 17.4 0.00 0.03 0.03 58 1005.5
20260504184701 57 237 7.8 17.4 0.00 0.03 0.03 58 1005.7
20260504184156 57 305 13.9 16.5 0.00 0.03 0.03 58 1005.8
20260504183653 56 298 15.6 19.1 0.00 0.03 0.03 58 1005.6
20260504183150 56 268 7.8 15.6 0.00 0.03 0.03 60 1005.7
20260504182648 56 280 17.4 20.9 0.00 0.03 0.03 59 1005.9
20260504182145 56 256 7.8 15.6 0.00 0.03 0.03 60 1005.6
20260504181643 55 284 12.2 13.9 0.00 0.03 0.03 62 1005.6
20260504181140 56 273 9.6 18.2 0.00 0.03 0.03 60 1005.7
20260504180640 55 247 7.8 14.8 0.00 0.03 0.03 64 1005.9
20260504180138 55 300 12.2 16.5 0.00 0.03 0.03 64 1005.9
20260504175635 54 312 7.8 15.6 0.00 0.03 0.03 65 1005.6
20260504175131 54 283 9.6 13.9 0.00 0.03 0.03 66 1005.7
20260504174630 54 250 5.2 11.3 0.00 0.03 0.03 66 1005.7
20260504174125 53 254 4.3 19.1 0.00 0.03 0.03 67 1005.7
20260504173623 53 250 2.6 11.3 0.00 0.03 0.03 68 1005.7
20260504173120 53 262 7.0 16.5 0.00 0.03 0.03 68 1005.9
20260504172616 53 252 10.4 16.5 0.00 0.03 0.03 69 1005.9
20260504172113 53 291 11.3 22.6 0.00 0.03 0.03 70 1005.8
20260504171609 51 275 8.7 19.1 0.00 0.03 0.03 71 1006.0
20260504171107 52 238 7.8 11.3 0.00 0.03 0.03 72 1006.1
20260504170602 51 267 5.2 9.6 0.00 0.03 0.03 76 1005.9
20260504150946 51 232 6.1 11.3 0.00 0.00 0.00 59 1005.2
20260504150443 51 262 3.5 7.0 0.00 0.00 0.00 58 1005.4
20260504140910 50 249 1.7 4.3 0.00 0.00 0.00 55 1006.0
20260504140406 50 149 2.6 5.2 0.00 0.00 0.00 56 1006.2
20260504130331 42 226 1.7 1.7 0.00 0.00 0.00 65 1007.1
20260504120254 42 55 0.0 1.7 0.00 0.00 0.00 64 1007.4
20260504110218 31 95 3.5 3.5 0.00 0.00 0.00 90 1007.3
20260504100142 28 94 2.6 3.5 0.00 0.00 0.00 92 1007.4
20260504090104 28 82 1.7 3.5 0.00 0.00 0.00 91 1006.9
20260504081535 28 95 2.6 3.5 0.00 0.00 0.00 90 1006.9
20260504081030 28 98 3.5 4.3 0.00 0.00 0.00 90 1006.7
20260504080527 28 84 0.9 4.3 0.00 0.00 0.00 90 1006.8
20260504050340 30 88 0.9 2.6 0.00 0.00 0.00 83 1006.6
20260504045837 30 102 2.6 3.5 0.00 0.00 0.00 83 1006.5
20260504045332 30 87 3.5 3.5 0.00 0.00 0.00 83 1006.5
20260504044829 31 105 1.7 2.6 0.00 0.00 0.00 82 1006.4
20260504044326 31 102 1.7 2.6 0.00 0.00 0.00 82 1006.6
20260504043824 31 97 1.7 2.6 0.00 0.00 0.00 81 1006.6
20260504043320 31 85 1.7 3.5 0.00 0.00 0.00 80 1006.7
20260504042818 32 91 1.7 2.6 0.00 0.00 0.00 80 1006.5
20260504042314 32 72 1.7 2.6 0.00 0.00 0.00 78 1006.8
20260504041810 33 101 1.7 2.6 0.00 0.00 0.00 77 1006.7
20260504041307 33 89 2.6 2.6 0.00 0.00 0.00 77 1006.6
20260504040803 33 150 0.0 2.6 0.00 0.00 0.00 76 1006.6
20260504040301 33 69 1.7 2.6 0.00 0.00 0.00 75 1006.7
20260504035756 33 71 0.9 2.6 0.00 0.01 0.01 76 1006.5
20260504035254 33 57 1.7 2.6 0.00 0.01 0.01 75 1006.6
20260504034751 33 81 1.7 2.6 0.00 0.01 0.01 76 1006.5
20260504034248 33 79 1.7 2.6 0.00 0.01 0.01 75 1006.3
20260504033746 34 76 1.7 3.5 0.00 0.01 0.01 75 1006.4
20260504033243 35 72 1.7 1.7 0.00 0.01 0.01 73 1006.2
20260504032740 35 82 0.9 2.6 0.00 0.01 0.01 71 1006.4
20260504032237 35 80 0.9 1.7 0.00 0.01 0.01 70 1006.4
20260504031733 36 83 1.7 2.6 0.00 0.01 0.01 69 1006.5
20260504031231 35 93 1.7 1.7 0.00 0.01 0.01 69 1006.5
20260504030726 35 97 0.9 1.7 0.00 0.01 0.01 70 1006.3
20260504030224 35 93 0.9 2.6 0.00 0.01 0.01 71 1006.4
20260504025720 35 100 1.7 2.6 0.00 0.01 0.01 72 1006.4
20260504025217 35 52 0.0 1.7 0.00 0.01 0.01 71 1006.6
20260504024714 36 97 1.7 1.7 0.00 0.01 0.01 70 1006.5
20260504024211 36 82 1.7 1.7 0.00 0.01 0.01 69 1006.4
20260504023708 37 77 1.7 2.6 0.00 0.01 0.01 67 1006.4
20260504023203 37 93 0.0 0.9 0.00 0.01 0.01 66 1006.5
20260504022700 37 81 1.7 1.7 0.00 0.01 0.01 65 1006.6
20260504022156 37 68 1.7 1.7 0.00 0.01 0.01 64 1006.6
20260504021654 37 94 1.7 1.7 0.00 0.01 0.01 63 1006.5
20260504021150 38 112 1.7 2.6 0.00 0.01 0.01 63 1006.5
20260504020648 39 103 0.9 2.6 0.00 0.01 0.01 63 1006.3
20260504020143 39 302 0.0 0.9 0.00 0.01 0.01 60 1006.6
20260504015641 40 73 0.9 2.6 0.00 0.01 0.01 60 1006.4
20260504015137 40 349 0.0 1.7 0.00 0.01 0.01 58 1006.5
20260504014632 40 308 1.7 1.7 0.00 0.01 0.01 58 1006.3
20260504014130 40 269 0.0 1.7 0.00 0.01 0.01 58 1006.7
20260504013627 41 49 0.0 1.7 0.00 0.01 0.01 57 1006.4
20260504013124 41 257 1.7 2.6 0.00 0.01 0.01 54 1006.5
20260504012621 42 311 3.5 7.8 0.00 0.01 0.01 53 1006.3
20260504012120 42 332 1.7 8.7 0.00 0.01 0.01 53 1006.3
20260504011616 42 309 2.6 7.8 0.00 0.01 0.01 53 1006.3
20260504011112 42 287 1.7 3.5 0.00 0.01 0.01 53 1006.4
20260504010608 42 291 1.7 2.6 0.00 0.01 0.01 53 1006.4
20260504010104 42 318 1.7 5.2 0.00 0.01 0.01 53 1006.4
20260504005601 42 325 6.1 6.1 0.00 0.01 0.01 52 1006.3
20260504005058 42 302 5.2 8.7 0.00 0.01 0.01 51 1006.3
20260504004556 42 11 1.7 6.1 0.00 0.01 0.01 52 1006.0
20260504004053 42 306 11.3 13.0 0.00 0.01 0.01 52 1006.1
20260504003549 42 343 1.7 5.2 0.00 0.01 0.01 52 1006.0
20260504003046 42 282 3.5 9.6 0.00 0.01 0.01 52 1006.1
20260504002543 42 300 3.5 6.1 0.00 0.01 0.01 52 1005.8
20260504002040 42 14 1.7 7.0 0.00 0.01 0.01 52 1006.0
20260504001538 43 269 6.1 8.7 0.00 0.01 0.01 50 1006.0
20260504001034 43 334 2.6 10.4 0.00 0.01 0.01 50 1005.9
20260504000531 43 306 4.3 8.7 0.00 0.01 0.01 50 1005.8
20260504000029 43 278 3.5 7.8 0.00 0.01 0.01 50 1005.7
20260503235527 43 318 3.5 8.7 0.00 0.01 0.01 49 1005.4
20260503235023 43 340 7.0 13.9 0.00 0.01 0.01 49 1005.3
20260503234521 44 309 6.1 11.3 0.00 0.01 0.01 49 1005.3
20260503234019 44 295 5.2 9.6 0.00 0.01 0.01 48 1005.4
20260503233515 44 319 6.1 7.8 0.00 0.01 0.01 47 1005.2
20260503233011 45 319 3.5 11.3 0.00 0.01 0.01 47 1005.2
20260503232508 45 140 1.7 12.2 0.00 0.01 0.01 47 1005.1
20260503232006 46 288 7.8 7.8 0.00 0.01 0.01 45 1005.1
20260503231504 46 52 1.7 7.8 0.00 0.01 0.01 46 1005.2
20260503231000 45 37 1.7 7.8 0.00 0.01 0.01 47 1005.3
20260503230456 45 62 0.0 11.3 0.00 0.01 0.01 45 1005.1
20260503225954 46 286 7.0 9.6 0.00 0.01 0.01 45 1005.1
20260503225451 45 1 4.3 8.7 0.00 0.01 0.01 46 1005.1
20260503224946 46 306 4.3 7.8 0.00 0.01 0.01 44 1005.3
20260503224443 46 319 3.5 15.6 0.00 0.01 0.01 44 1005.1
20260503223941 46 282 6.1 14.8 0.00 0.01 0.01 44 1004.9
20260503223439 45 19 5.2 13.9 0.00 0.01 0.01 45 1005.0
20260503222934 46 303 5.2 7.0 0.00 0.01 0.01 45 1005.0
20260503222433 46 295 4.3 5.2 0.00 0.01 0.01 44 1004.7
20260503221931 46 291 9.6 14.8 0.00 0.01 0.01 43 1004.8
20260503221429 46 213 1.7 12.2 0.00 0.01 0.01 43 1004.9
20260503220925 46 335 7.0 18.2 0.00 0.01 0.01 44 1004.9
20260503220421 46 304 8.7 13.0 0.00 0.01 0.01 42 1004.6
20260503215919 46 8 3.5 12.2 0.00 0.01 0.01 42 1004.7
20260503215416 46 229 0.9 11.3 0.00 0.01 0.01 42 1004.5
20260503214913 46 304 3.5 11.3 0.00 0.01 0.01 42 1004.6
20260503214410 47 330 12.2 18.2 0.00 0.01 0.01 41 1004.6
20260503213908 48 281 7.8 13.9 0.00 0.01 0.01 40 1004.5
20260503213406 49 304 11.3 18.2 0.00 0.01 0.01 39 1004.6
20260503212902 49 327 3.5 15.6 0.00 0.01 0.01 39 1004.6